Regional Weather Roundup
Issued by NWS Cleveland, OH

Home | Current Version | Previous Version | Graphics & Text | Print | Product List | Glossary On
Versions: 1 2 3 4 5 6 7 8 9 10 11 12 13 14 15 16 17 18 19 20 21 22 23 24 25 26 27 28 29 30 31 32 33 34 35 36 37 38 39 40 41 42 43 44 45 46 47 48 49 50
000
ASUS41 KCLE 300902
RWRCLE
OHIO REGIONAL WEATHER ROUNDUP
NATIONAL WEATHER SERVICE CLEVELAND, OH
500 AM EDT TUE JUN 30 2015

NOTE: "FAIR" INDICATES FEW OR NO CLOUDS BELOW 12,000 FEET WITH NO
SIGNIFICANT WEATHER AND/OR OBSTRUCTIONS TO VISIBILITY.

OHZ001>008-015>018-024>027-034-035-043-044-301000-
   NORTHWEST OHIO

CITY           SKY/WX    TMP DP  RH WIND       PRES   REMARKS
DEFIANCE       CLOUDY    63  60  90 CALM      29.80F FOG
FINDLAY        CLOUDY    63  61  93 SW5       29.80S FOG
TOLEDO EXPRESS CLOUDY    62  59  90 W5        29.79F
TOLEDO EXEC    CLOUDY    63  59  87 SW5       29.80F
LIMA           FOG       60  60 100 CALM      29.81S VSB 1
$$

OHZ009>014-019>023-028>033-038-089-301000-
   NORTHEAST OHIO

CITY           SKY/WX    TMP DP  RH WIND       PRES   REMARKS
CLE-HOPKINS    CLOUDY    62  60  93 CALM      29.81S
CLE-LAKEFRONT  CLOUDY    64  59  83 S5        29.78F
CUY CO. ARPT   NOT AVBL
LORAIN-ELYRIA  CLOUDY    62  60  93 SW3       29.80S FOG
ASHTABULA      CLOUDY    61  60  97 CALM      29.81F
AKRON-CANTON   CLOUDY    64  61  90 SW3       29.81S FOG
WOOSTER        CLOUDY    62  61  96 W6        29.82R FOG
MANSFIELD      CLOUDY    61  61 100 W6        29.81F
YOUNGSTOWN     LGT RAIN  61  60  97 S5        29.81S FOG
$$

OHZ042-051>053-060>062-070>072-077>081-301000-
  SOUTHWEST OHIO

CITY           SKY/WX    TMP DP  RH WIND       PRES   REMARKS
CINC-COVINGTON CLEAR     65  63  93 SW5       29.84R
CINC-LUNKEN    CLEAR     63  63 100 S5        29.83S
HAMILTON       FOG       62  62 100 CALM      29.83S VSB 1/4
DAYTON         FOG       64  62  93 W3        29.82S VSB 1/4
WRIGHT-PAT AFB NOT AVBL
DAYTON GENERAL FOG       64  63  96 S5        29.82R VSB 1/4
WILMINGTON     CLOUDY    65  64  97 S7        29.83R FOG
$$

OHZ036-037-039>041-045>050-054>059-063>069-073>076-082>088-301000-
  CENTRAL AND SOUTHEAST OHIO

CITY           SKY/WX    TMP DP  RH WIND       PRES   REMARKS
COLUMBUS       FOG       62  62 100 CALM      29.82R VSB 1/2
OSU AIRPORT    FOG       61  61 100 CALM      29.82R VSB 1/2
BOLTON FIELD   NOT AVBL
RICKENBACK AFB NOT AVBL
NEWARK         PTCLDY    64  62  93 SW3       29.82R FOG
MARION         FOG       61  59  93 W3        29.82S VSB 1
LANCASTER      CLOUDY    66  64  93 SW7       29.83R FOG
ZANESVILLE     NOT AVBL
NEW PHILLY     CLOUDY    64  63  96 CALM      29.82S
$$



USA.gov is the U.S. government's official web portal to all federal, state and local government web resources and services.